www.pogodaiklimat.ru

Погода и климат >> Архив погоды >> Боливия >> San Matias


ПОГОДА в San Matias

  • Прогноз погоды в San Matias
  • Монитор погоды в San Matias
  • Климат города

АРХИВ ПОГОДЫ в San Matias

Время (UTC), дата Ветер
(напр.,м/с)
 
Видим.   Явления Облачность Т
(С)
Тd
(С)
f
(%)
Тe
(С)
Тes
(С)
Комфортность P
(гПа)
Po
(гПа)
Тmin
(С)
Tmax
(С)
R
(мм)
R24
(мм)
S
(см)
12 10.12 Ю 4 30 км {дождь} 10/10 300 м
[Sc]
+23.2 +22.5 96 +32 +32 очень
душно
1009.4 999.0 +22.0 24
15 10.12 Ю 3 30 км в посл. час дождь 10/10 300 м
[Sc]
+23.8 +22.7 94 +31 +31 очень
душно
1010.5 1000.0
18 10.12 штиль 0 30 км 10/10 360 м
[Sc]
+27.0 +23.0 79 +36 +36 очень
душно
1009.4 999.0 1
12 11.12 штиль 0 30 км 5/5 600 м
[Sc]
+26.6 +24.0 86 +37 +42 очень
душно
1011.5 1001.0 +23.0 1
15 11.12 штиль 0 30 км 8/8 500 м
[Cu med, cong]
+34.0 +23.3 54 +45 +50 опасность
перегрева
1012.0 1001.0
18 11.12 штиль 0 30 км 8/8 500 м
[Cu med, cong]
+28.0 +22.5 72 +37 +41 очень
душно
1009.0 999.0
21 11.12 штиль 0 30 км 8/0
[Ci]
+33.0 +23.7 58 +44 +47 опасность
перегрева
1007.5 996.5 +33.0
12 12.12 штиль 0 30 км ясно +26.5 +23.8 85 +36 +46 очень
душно
1011.4 1001.0 +22.0
15 12.12 С 3 30 км ясно +33.5 +24.3 59 +46 +63 опасность
перегрева
1011.5 1001.0
18 12.12 штиль 0 30 км 5/5 500 м
[Cu hum]
+35.0 +23.0 50 +45 +56 опасность
перегрева
1009.0 999.0
21 12.12 штиль 0 30 км 6/6 500 м
[Cu med, cong]
+29.0 +22.1 66 +37 +39 очень
душно
1008.4 998.5 +36.0
12 13.12 штиль 0 30 км ясно +27.0 +24.3 85 +38 +48 очень
душно
1012.4 1002.0 +23.0
15 13.12 С 3 30 км 3/3 500 м
[Cu hum]
+33.0 +24.4 61 +46 +58 опасность
перегрева
1012.4 1002.0
18 13.12 С 3 30 км 5/5 500 м
[Cu med, cong]
+35.5 +22.7 48 +45 +52 опасность
перегрева
1009.5 999.0
21 13.12 штиль 0 30 км 4/4 500 м
[Cu hum]
+36.0 +22.6 46 +45 +47 опасность
перегрева
1007.6 997.6 +39.0
12 14.12 штиль 0 30 км 8/0 2000 м
[Ac trans]
+26.0 +23.3 85 +35 +40 очень
душно
1013.4 1003.0 +23.0
15 14.12 С 3 30 км 5/3 500 м
[Cu hum Ac trans]
+33.0 +24.4 61 +46 +57 опасность
перегрева
1013.5 1003.0
18 14.12 штиль 0 30 км 6/6 500 м
[Cu med, cong]
+34.0 +24.1 56 +46 +55 опасность
перегрева
1010.4 1000.0
21 14.12 штиль 0 30 км 3/3 500 м
[Cu hum]
+31.0 +25.8 74 +46 +48 опасность
перегрева
1008.5 998.0 +37.0
12 15.12 штиль 0 30 км 10/0
[Ci]
+27.0 +24.0 84 +37 +45 очень
душно
1013.4 1003.0 +24.0 0.2
15 15.12 штиль 0 30 км 10/5 500 м
[Cu hum Ci]
+33.0 +25.1 63 +47 +58 опасность
перегрева
1012.5 1002.0
18 15.12 штиль 0 30 км 10/5 500 м
[Cu med, cong Ci]
+35.0 +23.8 52 +46 +55 опасность
перегрева
1009.5 999.0
21 15.12 штиль 0 30 км 6/6 500 м
[Cu med, cong]
+32.0 +24.7 65 +45 +46 опасность
перегрева
1007.0 996.0 +36.0
12 16.12 штиль 0 30 км ясно +28.0 +24.0 79 +39 +49 очень
душно
1011.5 1001.3 +23.0
15 16.12 С 6 30 км 4/4 500 м
[Cu hum]
+35.0 +23.8 52 +46 +51 опасность
перегрева
1011.4 1001.0
18 16.12 С 5 30 км 5/5 500 м
[Cu hum]
+33.0 +23.7 58 +44 +48 опасность
перегрева
1008.4 998.0
21 16.12 штиль 0 30 км 4/4 500 м
[Cu hum]
+32.0 +24.0 63 +44 +46 опасность
перегрева
1006.5 996.0 +36.0

 

Местоположение метеостанции San Matias (Боливия): широта -16.33 долгота -58.38 высота над уровнем моря 124 м.

В архиве по умолчанию представлена погода в San Matias за последнюю неделю. Архивные данные за месяц целиком и за предыдущие месяцы, начиная с января 2011 года, Вы можете получить, выбрав интересующий диапазон дат из раскрывающегося списка и нажав кнопку "Ввод!".

Внимание! Время в таблицах - всемирное. Для получения местного времени необходимо прибавить поправку, которая в San Matias равна -4 ч.

Смотрите также архив погоды в соседних городах и на ближайших метеорологических станциях:

Погода в Caceres (Бразилия) (81 км)
Погода в Salto do Ceu (Бразилия) (136 км)
Погода в Pontes E Lacerda (Бразилия) (159 км)
Погода в Porto Estrela (Бразилия) (166 км)
Погода в Vila Bela da S Trind (Бразилия) (212 км)
Погода в Tangara da Serra (Бразилия) (213 км)
Погода в Cuiaba (Бразилия) (255 км)
Погода в Cuiaba (Бразилия) (256 км)
Погода в Robore (Боливия) (265 км)
Погода в San Ignacio De Velasco (Боливия) (275 км)

Пояснения к столбцам:

Ветер - указаны скорость ветра в м/с - средняя за 10 мин, порывы в срок и между сроками (в фигурных скобках) и направление, откуда дует ветер: С - северный, СВ - северо-восточный, В - восточный, ЮВ - юго-восточный, Ю - южный, ЮЗ - юго-западный, З - западный, СЗ - северо-западный.
Видимость - горизонтальная дальность видимости в метрах или километрах. При видимости от 1 до 10 км при отсутствии осадков обычно наблюдается дымка, при ухудшении видимости до 1 км и менее - туман. В сухую погоду видимость может ухудшаться дымом, пылью или мглою.
Явления - указаны атмосферные явления, наблюдавшиеся в срок или в последний час перед сроком; фигурными скобками обозначены явления, наблюдавшиеся между сроками (за 1-3 часа до срока); квадратными скобками обозначены град или гололедные отложения с указанием их диаметра в мм.
Облачность - указаны через наклонную черту общая и нижняя облачность в баллах и высота нижней границы облаков в метрах; квадратными скобками обозначены формы облаков: Ci - перистые, Cs - перисто-слоистые, Cc - перисто-кучевые, Ac - высококучевые, As - высокослоистые, Sc - слоисто-кучевые, Ns - слоисто-дождевые, Cu - кучевые, Cb - кучево-дождевые. Подробнее классификацию облаков см. в Атласе облаков (PDF).
T - Температура воздуха - температура, измеренная на высоте 2 м над землей.
Td - Температура точки росы - температура, при понижении до которой содержащийся в воздухе водяной пар достигнет насыщения.
f - Относительная влажность воздуха - влажноcть воздуха, измеренная на высоте 2 м над землей.
Te - Эффективная температура - температура, которую ощущает одетый по сезону человек в тени. Характеристика душности погоды. При расчете учитывается влияние влажности воздуха и скорости ветра на теплоощущения человека.
Tes - Эффективная температура на солнце - температура, которую ощущает человек, с поправкой на солнечный нагрев. Характеристика знойности погоды. Зависит от высоты солнца над горизонтом, облачности и скорости ветра. Ночью, в пасмурную погоду, а также при ветре 12 м/с и более поправка равна нулю.
P - Атмосферное давление - приведенное к уровню моря атмосферное давление.
Po - Атмосферное давление - измеренное на уровне метеостанции атмосферное давление.
Tmin - Минимальная температура - минимум температуры воздуха на высоте 2 м над землей.
Tmax - Максимальная температура - максимум температуры воздуха на высоте 2 м над землей.
R - Количество осадков - Количество выпавших осадков за период времени, мм. При наведении курсора мыши на число - период времени, за который выпало указанное количество осадков.
R24 - Количество осадков - Количество выпавших осадков за 24 часа, мм.
S - Снежный покров - Высота снежного покрова, см. При наведении курсора мыши на число - состояние снежного покрова и степень покрытия местности в баллах.